FW2321 Weather Reports


Display with metric or nautical units.
time (UTC)temp
F
wind
direction
speed
MPH
gust
MPH
rain 1hr
in
rain 24hr
in
rain mn
in
humidity
%
barometer
mb
20260831191600 83 236 2.0 10.0 0.00 0.15 0.08 79 1011.8
20260831191042 83 225 2.0 11.0 0.00 0.15 0.08 78 1011.9
20260831190538 83 251 4.0 11.0 0.00 0.15 0.08 78 1012.0
20260831190100 84 210 4.0 11.0 0.00 0.15 0.08 76 1011.9
20260831185537 84 212 5.0 9.0 0.00 0.17 0.08 75 1011.9
20260831185036 85 205 4.0 10.0 0.00 0.17 0.08 77 1011.8
20260831184553 85 232 5.0 10.0 0.00 0.17 0.08 77 1011.9
20260831184036 84 222 3.0 11.0 0.00 0.17 0.08 77 1011.8
20260831183536 84 226 5.0 11.0 0.00 0.17 0.08 76 1011.8
20260831183050 84 207 4.0 12.0 0.00 0.17 0.08 77 1012.0
20260831182539 84 198 4.0 15.0 0.00 0.17 0.08 75 1012.0
20260831182037 84 202 3.0 15.0 0.00 0.17 0.08 75 1012.0
20260831181601 84 229 5.0 11.0 0.00 0.17 0.08 76 1012.0
20260831181036 84 215 4.0 11.0 0.00 0.17 0.08 75 1012.0
20260831180535 85 300 4.0 10.0 0.00 0.17 0.08 74 1012.1
20260831180054 85 219 4.0 12.0 0.00 0.17 0.08 75 1011.9
20260831175536 84 139 3.0 12.0 0.00 0.17 0.08 77 1011.9
20260831175034 84 303 4.0 10.0 0.00 0.17 0.08 79 1011.9
20260831174553 83 209 4.0 10.0 0.00 0.17 0.08 81 1011.9
20260831174033 83 206 4.0 11.0 0.00 0.17 0.08 79 1012.0
20260831173538 82 202 4.0 11.0 0.00 0.17 0.08 80 1012.2
20260831173050 82 219 4.0 13.0 0.00 0.17 0.08 78 1012.1
20260831172534 83 205 3.0 13.0 0.00 0.17 0.08 80 1012.2
20260831172036 82 222 6.0 12.0 0.00 0.17 0.08 81 1012.3
20260831171558 81 180 5.0 13.0 0.00 0.17 0.08 82 1012.3
20260831171038 81 219 3.0 13.0 0.00 0.17 0.08 80 1012.4
20260831170538 81 242 4.0 12.0 0.00 0.17 0.08 80 1012.4
20260831170055 81 206 6.0 13.0 0.00 0.17 0.08 81 1012.5
20260831165537 81 233 3.0 13.0 0.00 0.17 0.08 81 1012.6
20260831165036 80 207 7.0 12.0 0.00 0.17 0.08 80 1012.6
20260831164552 80 230 4.0 13.0 0.00 0.17 0.08 81 1012.6
20260831164036 81 216 5.0 13.0 0.00 0.17 0.08 81 1012.7
20260831163536 81 223 5.0 12.0 0.00 0.17 0.08 82 1012.7
20260831163058 80 203 5.0 9.0 0.00 0.17 0.08 82 1012.7
20260831162537 80 185 4.0 14.0 0.00 0.17 0.08 82 1012.7
20260831162036 80 219 7.0 14.0 0.00 0.17 0.08 81 1012.7
20260831161552 80 192 7.0 14.0 0.00 0.17 0.08 81 1012.7
20260831161037 80 215 6.0 12.0 0.00 0.17 0.08 82 1012.6
20260831160536 79 198 5.0 13.0 0.00 0.17 0.08 83 1012.5
20260831160100 79 215 6.0 15.0 0.00 0.17 0.08 82 1012.6
20260831155538 79 211 4.0 15.0 0.00 0.17 0.08 84 1012.5
20260831155034 79 215 7.0 15.0 0.00 0.17 0.08 81 1012.7
20260831154623 79 213 5.0 15.0 0.00 0.17 0.08 82 1012.6
20260831154036 79 164 6.0 15.0 0.00 0.17 0.08 81 1012.7
20260831153536 78 215 4.0 13.0 0.00 0.17 0.08 83 1012.6
20260831153050 78 205 6.0 13.0 0.00 0.17 0.08 83 1012.8
20260831152539 78 224 4.0 9.0 0.00 0.17 0.08 83 1012.9
20260831152036 78 225 2.0 17.0 0.00 0.17 0.08 82 1012.9
20260831151604 78 205 3.0 17.0 0.00 0.17 0.08 83 1013.0
20260831151033 78 217 7.0 16.0 0.00 0.17 0.08 82 1012.8
20260831150533 77 221 5.0 12.0 0.00 0.17 0.08 84 1012.8
20260831150058 77 198 3.0 10.0 0.00 0.17 0.08 84 1012.9
20260831145538 77 220 4.0 11.0 0.00 0.17 0.08 84 1012.8
20260831145035 77 198 4.0 11.0 0.00 0.17 0.08 85 1012.8
20260831144603 76 205 6.0 11.0 0.00 0.17 0.08 85 1012.7
20260831144034 76 206 4.0 12.0 0.00 0.17 0.08 86 1012.7
20260831143535 76 207 5.0 12.0 0.00 0.17 0.08 86 1012.7
20260831143056 75 206 5.0 11.0 0.00 0.17 0.08 87 1012.6
20260831142534 75 218 6.0 11.0 0.00 0.17 0.08 86 1012.6
20260831142035 75 196 5.0 10.0 0.00 0.17 0.08 87 1012.7
20260831141601 74 231 4.0 15.0 0.00 0.17 0.08 87 1012.7
20260831141033 74 192 5.0 15.0 0.00 0.17 0.08 87 1012.7
20260831140535 74 218 4.0 12.0 0.00 0.17 0.08 88 1012.7
20260831140057 73 138 6.0 12.0 0.00 0.17 0.08 87 1012.7
20260831135536 73 193 5.0 16.0 0.00 0.17 0.08 88 1012.7
20260831135034 73 166 4.0 16.0 0.00 0.17 0.08 88 1012.8
20260831134556 73 195 5.0 11.0 0.00 0.17 0.08 89 1012.5
20260831134033 73 199 4.0 12.0 0.00 0.17 0.08 89 1012.6
20260831133534 73 157 5.0 12.0 0.00 0.17 0.08 89 1012.7
20260831133055 73 220 5.0 14.0 0.00 0.17 0.08 89 1012.5
20260831132536 72 173 5.0 14.0 0.00 0.17 0.08 89 1012.6
20260831132036 72 189 4.0 9.0 0.00 0.17 0.08 90 1012.5
20260831131555 72 167 3.0 10.0 0.00 0.17 0.08 90 1012.6
20260831131034 72 157 4.0 10.0 0.00 0.17 0.08 90 1012.4
20260831130535 72 180 4.0 10.0 0.00 0.17 0.08 91 1012.5
20260831130110 71 190 4.0 10.0 0.00 0.17 0.08 92 1012.4
20260831125533 71 176 3.0 10.0 0.00 0.17 0.08 92 1012.5
20260831125036 71 171 5.0 10.0 0.00 0.17 0.08 92 1012.4
20260831124556 71 208 3.0 12.0 0.00 0.17 0.08 93 1012.6
20260831124036 71 151 5.0 12.0 0.00 0.17 0.08 93 1012.5
20260831123534 70 196 4.0 11.0 0.00 0.17 0.08 94 1012.7
20260831123054 70 186 1.0 10.0 0.00 0.17 0.08 94 1012.7
20260831122537 70 205 4.0 10.0 0.00 0.17 0.08 95 1012.7
20260831122036 70 178 2.0 9.0 0.00 0.17 0.08 96 1012.7
20260831121604 70 180 3.0 8.0 0.00 0.17 0.08 96 1012.6
20260831121035 69 0 3.0 8.0 0.00 0.17 0.08 97 1012.6
20260831120532 70 180 2.0 7.0 0.00 0.17 0.08 97 1012.5
20260831120057 69 176 2.0 7.0 0.00 0.17 0.08 98 1012.7
20260831115535 69 173 2.0 9.0 0.00 0.17 0.08 98 1012.5
20260831115035 69 168 3.0 12.0 0.00 0.17 0.08 98 1012.7
20260831114555 69 173 2.0 12.0 0.00 0.17 0.08 98 1012.6
20260831114033 69 169 4.0 8.0 0.00 0.17 0.08 98 1012.6
20260831113533 69 150 3.0 8.0 0.00 0.17 0.08 99 1012.7
20260831113052 69 170 3.0 7.0 0.01 0.17 0.08 99 1012.7
20260831112536 69 173 2.0 7.0 0.01 0.17 0.08 99 1012.7
20260831112036 69 163 1.0 5.0 0.01 0.17 0.08 99 1012.8
20260831111602 69 168 2.0 5.0 0.01 0.17 0.08 100 1012.7
20260831111035 69 0 2.0 5.0 0.02 0.17 0.08 100 1012.7
20260831110536 69 133 0.0 2.0 0.06 0.17 0.08 100 1012.7
20260831110100 69 107 0.0 3.0 0.06 0.17 0.08 100 1012.9
20260831105539 69 0 0.0 4.0 0.06 0.17 0.08 100 1012.9
20260831105037 69 104 0.0 4.0 0.06 0.17 0.08 100 1012.8
20260831104551 69 0 0.0 4.0 0.07 0.17 0.08 100 1012.8
20260831104034 69 0 0.0 4.0 0.08 0.17 0.08 100 1013.0
20260831103536 69 104 0.0 4.0 0.08 0.17 0.08 100 1013.0
20260831103058 69 0 0.0 4.0 0.07 0.16 0.07 100 1013.1
20260831102535 69 59 2.0 4.0 0.07 0.16 0.07 99 1013.1
20260831102037 69 0 0.0 3.0 0.07 0.16 0.07 99 1013.2
20260831101555 69 156 0.0 2.0 0.07 0.16 0.07 99 1013.0
20260831101037 69 0 0.0 0.0 0.05 0.14 0.05 99 1012.8
20260831100537 69 0 0.0 0.0 0.02 0.11 0.02 100 1013.1
20260831100058 69 0 0.0 6.0 0.02 0.11 0.02 100 1013.3
20260831095533 69 0 1.0 6.0 0.02 0.22 0.02 100 1013.2
20260831095036 69 0 0.0 3.0 0.02 0.22 0.02 100 1012.8
20260831094554 69 0 0.0 4.0 0.01 0.21 0.01 100 1013.1
20260831094033 69 0 1.0 4.0 0.00 0.20 0.00 100 1013.1
20260831093536 69 0 0.0 4.0 0.00 0.20 0.00 100 1013.0
20260831093052 69 0 0.0 0.0 0.00 0.20 0.00 100 1013.0
20260831092536 69 0 0.0 0.0 0.00 0.20 0.00 100 1012.9
20260831092038 69 0 0.0 0.0 0.00 0.20 0.00 100 1012.7
20260831091608 69 0 0.0 0.0 0.00 0.20 0.00 100 1012.7
20260831091036 69 0 0.0 0.0 0.00 0.20 0.00 100 1012.8
20260831090537 69 0 0.0 0.0 0.00 0.20 0.00 100 1012.8
20260831090054 69 0 0.0 0.0 0.00 0.20 0.00 100 1012.8
20260831085537 69 0 0.0 0.0 0.00 0.57 0.00 100 1013.0
20260831085040 69 0 0.0 0.0 0.00 0.57 0.00 100 1012.9
20260831084557 69 0 0.0 0.0 0.00 0.57 0.00 100 1012.9
20260831084035 69 0 0.0 0.0 0.00 0.57 0.00 100 1012.9
20260831083536 69 0 0.0 0.0 0.00 0.57 0.00 100 1012.9
20260831083057 69 0 0.0 0.0 0.00 0.57 0.00 100 1013.0
20260831082539 69 0 0.0 0.0 0.00 0.57 0.00 100 1012.8
20260831082037 69 0 0.0 3.0 0.00 0.57 0.00 100 1012.8
20260831081556 69 0 0.0 3.0 0.00 0.57 0.00 100 1012.9
20260831081036 68 130 0.0 4.0 0.00 0.57 0.00 100 1012.7
20260831080536 68 0 0.0 4.0 0.00 0.57 0.00 100 1012.8
20260831080051 68 0 0.0 0.0 0.00 0.57 0.00 100 1012.8
20260831075536 68 0 0.0 0.0 0.00 0.57 0.00 100 1012.9
20260831075036 67 0 0.0 0.0 0.00 0.57 0.00 100 1013.1
20260831074600 67 0 0.0 0.0 0.00 0.57 0.00 100 1013.1
20260831074036 67 0 0.0 0.0 0.00 0.57 0.00 100 1013.0
20260831073536 67 0 0.0 0.0 0.00 0.57 0.00 99 1013.2
20260831073111 67 0 0.0 0.0 0.00 0.57 0.00 99 1013.3
20260831072538 67 0 0.0 0.0 0.00 0.57 0.00 99 1013.4
20260831072036 67 0 0.0 0.0 0.00 0.57 0.00 99 1013.5
20260831071552 67 0 0.0 0.0 0.00 0.57 0.00 99 1013.6
20260831071036 67 0 0.0 0.0 0.00 0.57 0.00 99 1013.6
20260831070537 68 0 0.0 0.0 0.00 0.57 0.00 99 1013.7
20260831065537 68 0 0.0 0.0 0.00 0.57 0.00 99 1013.9
20260831065037 68 0 0.0 0.0 0.00 0.57 0.00 99 1014.0
20260831064555 68 0 0.0 0.0 0.00 0.57 0.00 98 1013.9
20260831064036 68 0 0.0 0.0 0.00 0.57 0.00 98 1014.0
20260831063537 68 0 0.0 0.0 0.00 0.57 0.00 98 1014.0
20260831063055 68 0 0.0 0.0 0.00 0.57 0.00 98 1014.1
20260831062538 68 0 0.0 0.0 0.00 0.57 0.00 98 1014.2
20260831062038 69 0 0.0 0.0 0.00 0.57 0.00 98 1014.2
20260831061554 69 0 0.0 0.0 0.00 0.57 0.00 98 1014.1
20260831061038 69 0 0.0 0.0 0.00 0.57 0.00 98 1014.2
20260831060536 69 0 0.0 0.0 0.00 0.57 0.00 98 1014.2
20260831055536 69 0 0.0 0.0 0.00 0.57 0.00 98 1014.2
20260831055033 69 0 0.0 0.0 0.00 0.57 0.00 98 1014.2
20260831054558 69 0 0.0 0.0 0.00 0.57 0.00 98 1014.1
20260831054033 69 0 0.0 0.0 0.00 0.57 0.00 97 1014.1
20260831053533 70 0 0.0 0.0 0.00 0.57 0.00 97 1014.1
20260831053052 70 0 0.0 0.0 0.00 0.57 0.00 97 1014.1
20260831052533 70 0 0.0 0.0 0.00 0.57 0.00 97 1014.0
20260831052032 70 0 0.0 0.0 0.00 0.57 0.00 97 1014.0
20260831051558 70 0 0.0 0.0 0.00 0.57 0.00 97 1013.8
20260831051034 70 0 0.0 0.0 0.00 0.57 0.00 96 1013.8
20260831050535 70 0 0.0 0.0 0.00 0.57 0.00 96 1013.9
20260831050058 71 0 0.0 0.0 0.00 0.57 0.00 96 1013.9
20260831045533 71 0 0.0 0.0 0.00 0.57 0.57 96 1013.9
20260831045036 71 0 0.0 0.0 0.00 0.57 0.57 96 1013.9
20260831044601 71 0 0.0 0.0 0.00 0.57 0.57 96 1013.8
20260831044033 71 0 0.0 0.0 0.00 0.57 0.57 96 1013.8
20260831043535 71 0 0.0 0.0 0.00 0.57 0.57 96 1013.7
20260831043100 71 0 0.0 0.0 0.00 0.57 0.57 95 1013.8
20260831042534 71 0 0.0 0.0 0.00 0.57 0.57 95 1013.7
20260831042036 71 0 0.0 3.0 0.00 0.57 0.57 95 1013.7
20260831041643 71 0 0.0 3.0 0.00 0.57 0.57 95 1013.6
20260831041039 71 0 0.0 4.0 0.00 0.57 0.57 95 1013.7
20260831040534 71 0 1.0 4.0 0.00 0.57 0.57 95 1013.7
20260831040058 71 182 0.0 3.0 0.00 0.57 0.57 95 1013.6
20260831035536 72 185 1.0 3.0 0.00 0.57 0.57 94 1013.8
20260831035038 72 0 0.0 4.0 0.00 0.57 0.57 94 1013.8
20260831034601 72 0 0.0 8.0 0.00 0.57 0.57 94 1013.8
20260831034033 72 0 2.0 9.0 0.00 0.57 0.57 94 1013.7
20260831033533 72 169 3.0 9.0 0.00 0.57 0.57 94 1013.7
20260831033052 72 169 4.0 9.0 0.00 0.57 0.57 94 1013.4
20260831032533 72 187 3.0 9.0 0.00 0.57 0.57 94 1013.6
20260831032036 72 164 4.0 9.0 0.00 0.57 0.57 94 1013.3
20260831031557 72 175 3.0 7.0 0.00 0.57 0.57 94 1013.5
20260831031036 72 242 3.0 7.0 0.00 0.57 0.57 94 1014.0
20260831030532 72 0 0.0 3.0 0.00 0.57 0.57 94 1013.9
20260831030101 72 0 0.0 3.0 0.00 0.57 0.57 94 1014.1
20260831025538 72 184 0.0 3.0 0.00 0.57 0.57 94 1014.0
20260831025037 72 0 0.0 4.0 0.00 0.57 0.57 94 1014.2
20260831024619 72 0 0.0 7.0 0.00 0.57 0.57 94 1014.3
20260831024037 72 183 3.0 10.0 0.00 0.57 0.57 94 1014.1
20260831023539 72 205 5.0 10.0 0.00 0.57 0.57 94 1013.9
20260831023059 72 189 5.0 9.0 0.00 0.57 0.57 95 1013.7
20260831022538 72 205 3.0 9.0 0.00 0.57 0.57 94 1014.0
20260831022038 72 211 2.0 10.0 0.00 0.57 0.57 94 1014.4
20260831021554 72 217 3.0 10.0 0.00 0.57 0.57 94 1014.1
20260831021035 72 193 5.0 10.0 0.00 0.57 0.57 94 1013.9
20260831020536 72 196 2.0 7.0 0.00 0.57 0.57 94 1013.7
20260831020055 72 0 0.0 5.0 0.00 0.57 0.57 94 1013.9
20260831015541 72 0 2.0 10.0 0.00 0.57 0.57 94 1013.9
20260831015037 72 203 1.0 10.0 0.00 0.57 0.57 94 1013.8
20260831014552 72 205 5.0 10.0 0.00 0.57 0.57 94 1014.1
20260831014037 71 213 5.0 10.0 0.00 0.57 0.57 95 1013.9
20260831013537 71 209 2.0 9.0 0.00 0.57 0.57 95 1014.1
20260831013110 71 205 4.0 9.0 0.00 0.57 0.57 95 1014.2
20260831012538 71 196 4.0 9.0 0.00 0.57 0.57 95 1014.2
20260831012034 71 212 2.0 10.0 0.00 0.57 0.57 95 1014.5
20260831011556 71 198 2.0 10.0 0.00 0.57 0.57 96 1014.4
20260831011034 71 195 3.0 10.0 0.00 0.57 0.57 96 1014.4
20260831010537 71 209 3.0 9.0 0.00 0.57 0.57 97 1014.4
20260831010122 71 230 2.0 9.0 0.00 0.57 0.57 97 1014.3
20260831005537 70 202 2.0 9.0 0.00 0.57 0.57 97 1014.0
20260831005040 70 209 2.0 7.0 0.00 0.57 0.57 97 1014.0
20260831004558 70 201 2.0 7.0 0.00 0.57 0.57 97 1013.9
20260831004038 71 208 3.0 7.0 0.00 0.57 0.57 97 1013.9
20260831003538 71 209 3.0 9.0 0.00 0.57 0.57 97 1013.8
20260831003056 71 169 3.0 9.0 0.00 0.57 0.57 97 1013.7
20260831002537 71 186 1.0 6.0 0.00 0.57 0.57 97 1013.7
20260831002037 71 180 2.0 6.0 0.00 0.57 0.57 97 1013.6
20260831001607 71 204 3.0 6.0 0.00 0.57 0.57 97 1013.5
20260831001040 71 207 3.0 6.0 0.00 0.57 0.57 97 1013.6
20260831000534 71 181 2.0 6.0 0.00 0.57 0.57 97 1013.5
20260831000113 71 180 2.0 6.0 0.00 0.57 0.57 97 1013.4
20260830235534 71 179 1.0 7.0 0.00 0.57 0.57 97 1013.3
20260830235033 71 173 1.0 7.0 0.00 0.57 0.57 97 1013.4
20260830234557 71 198 2.0 5.0 0.00 0.57 0.57 97 1013.4
20260830234033 71 205 3.0 5.0 0.00 0.57 0.57 96 1013.3
20260830233533 71 195 3.0 6.0 0.00 0.57 0.57 96 1013.3
20260830233055 71 212 3.0 8.0 0.00 0.57 0.57 96 1013.3
20260830232533 71 202 2.0 8.0 0.00 0.57 0.57 96 1013.3
20260830232032 71 215 2.0 8.0 0.00 0.57 0.57 96 1013.3
20260830231556 72 220 3.0 8.0 0.00 0.57 0.57 96 1013.2
20260830231035 72 209 3.0 9.0 0.00 0.57 0.57 96 1013.2
20260830230532 72 198 4.0 12.0 0.00 0.57 0.57 96 1013.2
20260830225533 72 208 6.0 11.0 0.00 0.57 0.57 96 1013.2
20260830225033 72 205 4.0 11.0 0.00 0.57 0.57 96 1013.3
20260830224553 72 205 6.0 11.0 0.00 0.57 0.57 96 1013.3
20260830224035 72 217 6.0 16.0 0.00 0.57 0.57 95 1013.3
20260830223534 72 198 6.0 16.0 0.00 0.57 0.57 96 1013.2
20260830223129 72 222 4.0 10.0 0.00 0.57 0.57 96 1013.2
20260830222532 72 213 3.0 8.0 0.00 0.57 0.57 96 1013.2
20260830222034 72 232 4.0 9.0 0.00 0.57 0.57 96 1013.3
20260830221604 72 198 3.0 9.0 0.00 0.57 0.57 96 1013.4
20260830221038 71 204 4.0 9.0 0.00 0.57 0.57 97 1013.4
20260830220532 71 221 4.0 7.0 0.01 0.57 0.57 97 1013.3
20260830220106 71 186 2.0 6.0 0.01 0.57 0.57 97 1013.4
20260830215536 71 198 2.0 6.0 0.01 0.57 0.57 98 1013.4
20260830215034 71 209 2.0 5.0 0.02 0.57 0.57 98 1013.4
20260830214553 71 216 2.0 5.0 0.02 0.57 0.57 98 1013.3
20260830214037 71 0 0.0 3.0 0.03 0.57 0.57 98 1013.4
20260830213533 71 0 0.0 3.0 0.04 0.57 0.57 98 1013.3
20260830213056 71 0 0.0 3.0 0.04 0.57 0.57 98 1013.3
20260830212534 71 0 0.0 5.0 0.04 0.57 0.57 98 1013.4
20260830212033 71 0 0.0 7.0 0.04 0.57 0.57 98 1013.2
20260830211555 71 285 3.0 7.0 0.05 0.57 0.57 98 1013.3
20260830211036 71 0 2.0 7.0 0.05 0.57 0.57 98 1013.0
20260830210533 70 186 3.0 7.0 0.04 0.56 0.56 98 1012.9
20260830210056 70 193 3.0 6.0 0.04 0.56 0.56 98 1013.1
20260830205533 70 221 2.0 4.0 0.04 0.57 0.56 98 1013.2
20260830205036 70 290 2.0 4.0 0.03 0.56 0.55 97 1013.3
20260830204600 70 0 0.0 2.0 0.02 0.55 0.54 97 1013.3
20260830204037 70 0 0.0 3.0 0.02 0.55 0.54 97 1013.5
20260830203537 71 319 0.0 3.0 0.01 0.54 0.52 97 1013.4
20260830203100 71 0 1.0 8.0 0.01 0.54 0.52 97 1013.5
20260830202539 71 321 2.0 8.0 0.02 0.54 0.52 97 1013.4
20260830202037 71 279 3.0 12.0 0.02 0.54 0.52 96 1013.5
20260830201554 71 206 4.0 12.0 0.01 0.52 0.52 96 1013.4
20260830201037 71 206 4.0 10.0 0.01 0.52 0.52 96 1013.5
20260830200538 71 210 4.0 12.0 0.01 0.52 0.52 96 1013.5
20260830200054 71 223 5.0 12.0 0.02 0.52 0.52 95 1013.8
20260830195540 71 273 4.0 10.0 0.02 0.52 0.52 95 1013.9
20260830195037 71 197 4.0 10.0 0.04 0.52 0.52 95 1013.7
20260830194608 72 218 3.0 10.0 0.04 0.52 0.52 94 1013.8
20260830194037 72 229 5.0 10.0 0.04 0.52 0.52 94 1014.0
20260830193536 72 198 3.0 16.0 0.04 0.52 0.52 93 1013.9
20260830193104 73 205 4.0 16.0 0.04 0.52 0.52 92 1014.0
20260830192537 73 221 4.0 13.0 0.03 0.52 0.51 92 1014.2
20260830192040 73 226 3.0 13.0 0.03 0.52 0.51 92 1014.2